Terminal Aerodrome Forecast
Issued by NWS

Home | Current Version | Previous Version | Text Only | Print | Product List | Glossary Off
Versions: 1 2 3 4 5 6 7 8 9 10 11 12 13 14 15

000
FTUS45 KGGW 281700
TAFGDV
TAF
KGDV 281734Z 2818/2918 32012KT P6SM OVC020
     FM282100 28010KT P6SM FEW025
     FM290600 15004KT P6SM BKN100
     FM291200 20006KT P6SM OVC060
      AMD LTD TO CLD VIS AND WIND=

USA.gov is the U.S. government's official web portal to all federal, state and local government web resources and services.